Malmstrom AFB, MT

6:25 PM MDT on September 24, 2017 (GMT -0600)
Malmstrom AFB

Weather History for KGFA - April, 2014

Change the Weather History Date:

Thursday, April 24, 2014

  Actual Average (KGTF) Record (KGTF)
Temperature  
Mean Temperature 47 °F -  
Max Temperature 57 °F 58 °F 83 °F (1910)
Min Temperature 37 °F 35 °F 11 °F (2009)
Degree Days  
Heating Degree Days 18    
Moisture  
Dew Point 31 °F    
Average Humidity 53    
Maximum Humidity 70    
Minimum Humidity 39    
Precipitation  
Precipitation 0.03 in - - ()
Sea Level Pressure  
Sea Level Pressure 29.84 in    
Wind  
Wind Speed 15 mph (SW)    
Max Wind Speed 23 mph    
Max Gust Speed 33 mph    
Visibility 10 miles    
Events Rain    
Averages and records for this station are not official NWS values.
T = Trace of Precipitation, MM = Missing Value Source: NWS Daily Summary

Daily Weather History Graph

Daily Weather History Graph

Search for Another Location

Airport or City:

Trip Planner

Search our weather history database for the weather conditions in past years. The results will help you decide how hot, cold, wet, or windy it might be!

Date:

Astronomy

Apr. 24, 2014 Rise Set
Actual Time 6:19 AM MDT 8:26 PM MDT
Civil Twilight 5:46 AM MDT 9:00 PM MDT
Nautical Twilight 5:04 AM MDT 9:41 PM MDT
Astronomical Twilight 4:18 AM MDT 10:28 PM MDT
Moon 3:54 AM MDT (4/24) 3:27 PM MDT (4/24)
Length of Visible Light 15h 14m
Length of Day
14h 07m
Waning Crescent, 24% of the Moon is Illuminated
Apr 24
Waning Crescent
Apr 29
New
May 6
First Quarter
May 14
Full
May 21
Last Quarter

Hourly Weather History & Observations

Time (MDT) Temp. Windchill Dew Point Humidity Pressure Visibility Wind Dir Wind Speed Gust Speed Precip Events Conditions
12:56 AM 37.9 °F 28.5 °F 28.0 °F 68% 29.85 in 10.0 mi SSW 17.3 mph - N/A   Clear
1:56 AM 39.0 °F 28.8 °F 28.0 °F 65% 29.85 in 10.0 mi SSW 21.9 mph 28.8 mph N/A   Clear
2:56 AM 37.0 °F 27.4 °F 28.0 °F 70% 29.87 in 10.0 mi SSW 17.3 mph - N/A   Clear
3:56 AM 37.0 °F 28.1 °F 28.0 °F 70% 29.88 in 10.0 mi SSW 15.0 mph - N/A   Clear
4:56 AM 37.0 °F 28.9 °F 28.0 °F 70% 29.90 in 10.0 mi SSW 12.7 mph - N/A   Clear
5:56 AM 39.0 °F 31.8 °F 28.0 °F 65% 29.90 in 10.0 mi SW 11.5 mph - N/A   Mostly Cloudy
6:56 AM 42.1 °F 33.9 °F 28.9 °F 60% 29.88 in 10.0 mi SSW 17.3 mph - N/A   Overcast
7:56 AM 44.1 °F 38.6 °F 30.0 °F 58% 29.89 in 10.0 mi SSW 10.4 mph - N/A   Overcast
8:56 AM 48.9 °F - 28.9 °F 46% 29.87 in 10.0 mi SW 15.0 mph - N/A   Partly Cloudy
9:56 AM 48.9 °F - 28.9 °F 46% 29.86 in 10.0 mi South 12.7 mph - N/A   Overcast
10:56 AM 51.1 °F - 28.0 °F 41% 29.85 in 10.0 mi SSW 15.0 mph - N/A   Mostly Cloudy
11:56 AM 51.1 °F - 30.0 °F 44% 29.85 in 10.0 mi SSW 12.7 mph - N/A   Overcast
12:56 PM 53.1 °F - 30.0 °F 41% 29.82 in 10.0 mi SW 12.7 mph - N/A   Partly Cloudy
1:56 PM 55.9 °F - 30.9 °F 39% 29.79 in 10.0 mi SSW 23.0 mph 29.9 mph N/A   Clear
2:56 PM 57.0 °F - 32.0 °F 39% 29.78 in 10.0 mi SW 20.7 mph 33.4 mph N/A   Mostly Cloudy
3:56 PM 55.9 °F - 33.1 °F 42% 29.78 in 10.0 mi SSW 21.9 mph 32.2 mph N/A   Mostly Cloudy
4:48 PM 50.0 °F - 37.4 °F 62% 29.70 in 6.0 mi WNW 15.0 mph 25.3 mph 0.01 in Rain Light Rain
4:56 PM 51.1 °F - 37.0 °F 59% 29.82 in 6.0 mi WNW 10.4 mph 19.6 mph 0.02 in Rain Light Rain
5:56 PM 54.0 °F - 35.1 °F 49% 29.82 in 10.0 mi West 10.4 mph - 0.01 in   Overcast
6:56 PM 55.0 °F - 32.0 °F 42% 29.82 in 10.0 mi WSW 6.9 mph - N/A   Scattered Clouds
7:56 PM 53.1 °F - 30.0 °F 41% 29.82 in 10.0 mi SW 6.9 mph - N/A   Clear
8:56 PM 48.9 °F - 32.0 °F 52% 29.83 in 10.0 mi SSW 15.0 mph - N/A   Clear
9:56 PM 46.0 °F 39.9 °F 30.9 °F 56% 29.84 in 10.0 mi SSW 13.8 mph - N/A   Clear
10:56 PM 44.1 °F 38.1 °F 30.9 °F 60% 29.83 in 10.0 mi South 11.5 mph - N/A   Clear
11:56 PM 46.0 °F 40.2 °F 28.9 °F 51% 29.82 in 10.0 mi SSW 12.7 mph - N/A   Clear